Location: DARK SKY Beskydy - Park tmavé oblohy, www.darkskybeskydy.cz
(49.4926°N, 18.5016°E)
Time: 08:21:56
(UTC+01:00)

ISS - Visible Passes

Search period start: 01 December 2022 00:00
Search period end: 11 December 2022 00:00
Orbit: 415 x 420 km, 51.6° (Epoch: 01 December)

Date Brightness Start Highest point End Pass type
(mag) Time Alt. Az. Time Alt. Az. Time Alt. Az.
01 Dec -3.8 17:52:35 10° WNW 17:55:56 78° SSW 17:56:07 74° SSE visible
02 Dec -3.9 17:04:22 10° WNW 17:07:44 81° NNE 17:10:06 18° ESE visible
02 Dec -1.2 18:41:21 10° W 18:43:02 22° WSW 18:43:02 22° WSW visible
03 Dec -2.6 17:52:53 10° WNW 17:56:03 41° SSW 17:57:02 31° SSE visible
04 Dec -3.2 17:04:23 10° WNW 17:07:41 59° SSW 17:10:59 10° SE visible
04 Dec -0.8 18:42:13 10° WSW 18:43:53 13° SW 18:44:03 13° SW visible
05 Dec -1.2 17:53:02 10° W 17:55:33 20° SW 17:58:03 10° S visible
06 Dec -1.8 17:04:04 10° W 17:07:02 29° SW 17:09:59 10° SSE visible
08 Dec -0.6 17:03:52 10° WSW 17:05:44 14° SW 17:07:37 10° S visible
